STARLINK-6165, 57127

Orbit data source: Space-Track

STARLINK-6165, 57127 is a payload satellite owned by SpaceX/Seattle (US) in LEO that was launched on Fri, 23 Jun 2023 UTC via an FALCON 9 launch vehicle from the Air Force Eastern Test Range (AFETR). Payload-class satellites include a variety of spacecraft equipped with specific instruments for various scientific and technological missions. These include communications satellites like Starlink; space stations such as the ISS; scientific satellites like the Hubble; Earth observation satellites from companies like Planet Labs, Umbra, and HawkEye 360; GPS; miniature CubeSats for education and research; and military/defense satellites.

Loading next visibility...
Identifier
57127, 2023-090AC
Orbit
LEO
Last TLE update
13 hours ago
Origin
Manufacturer
SpaceX/Seattle
Mission
Operational Commercial Communications
Bus & Motor
STARLINK, Unknown motor
Mass
305 kg wet, ~290 kg dry
Launch date (UTC)
2023-06-23 (2 years ago)
Launch vehicle
FALCON 9
Launch site
Air Force Eastern Test Range (AFETR)
Object type
Payload
Rocket body
Debris
Shape & HBR
Box + 1 Pan, 9 m
Radar Cross Section
11.087 m², Large (>1 m²)

Expand to show TLE details & history

TLE from 13 hours ago
0 STARLINK-6165
1 57127U 23090AC  25187.95888439  .00000153  00000-0  26443-4 0  9995
2 57127  43.0034 169.4840 0001833 294.3622  65.7028 15.02541614113263
Epoch: 2025-07-06T23:00Z
TLE epoch observation values (Epoch: 2025-07-06T23:00:47.611Z)
Latitude
-0.00007°
Longitude
-100.88956°
Altitude
558.318 km
Speed
7.584 km/s
True Right ascension
11h 17m 56s
True Declination
0° 00' 00"
Sunlit
Object was in daylight at epoch
Visualization orbit readout
Latitude
20.39075°
Longitude
-80.45869°
Altitude
558.51 km
Speed
7.586 km/s
Apparent Right ascension
12h 21m 22s
Apparent Declination
-8° 21' 24"
Sunlit
Object is in daylight
Visualization observer readout
Local Sidereal Time
23:57:04
Azimuth
348.613° N
Elevation
-57.977°
Doppler factor
1
Orbital elements
Apogee altitude
562.258 km
Perigee altitude
559.714 km
Semi-major axis
6,939.123 km
Eccentricity
0.00018
Inclination
43.0034°
RAAN
169.484°
Arg. of periapsis
294.3622°
True anomaly
Unknown
Mean anomaly
65.7028°
Eccentric anomaly
Unknown
Mean motion
3.7548 °/min
Orbital period
95.88 mins
BSTAR
0.000026443
Loading maneuver chart data...
Loading SW <> Apogee altitude chart data...
Loading historical data...
Loading historical data...
Loading historical data...
Loading historical data...
Loading historical data...
Loading historical data...
Loading historical data...

STARLINK-6165 Visibility forecast

Observer location: undefined°, undefined°

Span
Click to sort rows by Start time (UTC) header in descending order
Start Az.
Max El. time (UTC)
Max El. Az.
Max El.
End time (UTC)
End Az.
4 mins2025-07-08 00:42:43.995Z171.816° S2025-07-08 00:44:43.995Z142.402° SSE14.093°2025-07-08 00:46:43.995Z111.951° ESE
6 mins2025-07-08 02:22:43.995Z227.533° WSW2025-07-08 02:24:43.995Z174.546° S40.738°2025-07-08 02:28:43.995Z76.263° E
7 mins2025-07-08 04:02:43.995Z276.112° WNW2025-07-08 04:05:43.995Z354.054° N40.756°2025-07-08 04:09:43.995Z73.018° E
7 mins2025-07-08 05:43:43.995Z291.537° WNW2025-07-08 05:46:43.995Z16.579° NNE42.326°2025-07-08 05:50:43.995Z93.798° ESE
6 mins2025-07-08 07:24:43.995Z273.251° WNW2025-07-08 07:27:43.995Z188.188° SSW35.062°2025-07-08 07:30:43.995Z137.308° SSE
|